Flag for Isle of Man Weather past 2 weeks in Douglas, Isle of Man

Now
61 °F

Light rain. Passing clouds.


Feels Like: 61 °F
Forecast: 58 / 65 °F
Wind: 13 mph from North

Location: Isle Of Man / Ronaldsway Airport

Current Time: Jul 26, 2014 at 7:12:41 PM

Latest Report: Jul 26, 2014 at 6:50 PM


Visibility: N/A

Pressure: 30.04 "Hg

Humidity: 94%

Dew point: 59 °F

Location of DouglasLocation

Historic Weather in Douglas — Graph

°F

Douglas temperature yesterday

Maximum temperature yesterday: 79 °F (at 3:50 PM)
Minimum temperature yesterday: 61 °F (at 5:20 AM)
Average temperature yesterday: 72 °F

Past Weeks' High & Low Weather Summary

 TemperatureHumidityPressure
High79 °F (Jul 24, 4:20 PM)100% (Jul 12, 9:20 AM)30.27 "Hg (Jul 12, 9:20 AM)
Low50 °F (Jul 14, 2:50 AM)34% (Jul 25, 4:20 PM)29.74 "Hg (Jul 12, 11:50 PM)
Average64 °F81%29.99 "Hg
* Reported Jul 11 5:20 PM — Jul 26 5:50 PM, Douglas, Weather by CustomWeather, © 2014

Note: Actual official high and low records may vary slightly from our data, if they occured in-between our weather recording intervals... More about our weather records

Advertising

Douglas weather history for previous 24 hours

 ConditionsComfort  
Time TempWeatherWind HumidityBarometerVisibility
5:50 PM
Jul 26
66 °FLight rain. Broken clouds.10 mph83%30.01 "Hg4 mi
5:20 PM66 °FLight rain. Scattered clouds.10 mph88%30.01 "Hg6 mi
4:50 PM66 °FLight rain. Passing clouds.14 mph88%30.01 "Hg5 mi
4:20 PM66 °FPassing clouds.10 mph88%30.01 "Hg6 mi
3:50 PM68 °FPassing clouds.9 mph83%30.01 "Hg6 mi
3:20 PM66 °FPassing clouds.13 mph83%30.01 "Hg6 mi
2:50 PM70 °FPassing clouds.13 mph78%30.01 "Hg6 mi
2:20 PM70 °FPassing clouds.13 mph78%30.01 "HgN/A
1:50 PM70 °FPassing clouds.10 mph73%30.01 "HgN/A
1:20 PM72 °FPassing clouds.12 mph69%30.01 "HgN/A
12:50 PM75 °FPassing clouds.12 mph61%30.04 "HgN/A
12:20 PM70 °FPassing clouds.12 mph69%30.04 "HgN/A
11:50 AM70 °FPassing clouds.9 mph69%30.04 "HgN/A
11:20 AM70 °FSunny.5 mph69%30.04 "Hg10 mi
10:50 AM72 °FPassing clouds.5 mph65%30.04 "HgN/A
10:20 AM68 °FPassing clouds.2 mph73%30.04 "HgN/A
9:50 AM66 °FPassing clouds.3 mph83%30.04 "HgN/A
9:20 AM66 °FSunny.6 mph83%30.04 "Hg10 mi
8:50 AM66 °FSunny.6 mph83%30.04 "Hg10 mi
8:20 AM64 °FSunny.7 mph88%30.04 "Hg10 mi
7:50 AM66 °FSunny.7 mph83%30.04 "Hg10 mi
7:20 AM64 °FSunny.5 mph88%30.04 "Hg10 mi
6:50 AM64 °FPassing clouds.5 mph88%30.04 "HgN/A
6:20 AM64 °FPassing clouds.5 mph83%30.04 "HgN/A
5:50 AM63 °FClear.6 mph88%30.04 "Hg10 mi
5:20 AM63 °FPassing clouds.8 mph88%30.04 "HgN/A
4:50 AM63 °FPassing clouds.7 mph88%30.04 "HgN/A
2:50 AM64 °FPassing clouds.6 mph83%30.04 "HgN/A
1:50 AM66 °FPassing clouds.9 mph73%30.07 "HgN/A
12:50 AM64 °FPassing clouds.6 mph68%30.07 "HgN/A
11:50 PM
Jul 25
66 °FClear.6 mph68%30.07 "Hg10 mi
10:50 PM64 °FClear.6 mph73%30.07 "Hg10 mi
9:50 PM68 °FPassing clouds.5 mph69%30.07 "HgN/A
8:50 PM72 °FSunny.2 mph61%30.07 "Hg10 mi
8:20 PM75 °FSunny.2 mph54%30.07 "Hg10 mi
7:50 PM75 °FSunny.5 mph47%30.07 "Hg10 mi
7:20 PM75 °FSunny.5 mph44%30.07 "Hg10 mi
Weather by CustomWeather, © 2014

See weather overviewHow to use our weather pages